,,,PA_Meas_PMT16A,,PR_Meas_QMR101_102,,RH_Meas_QMH101,,SR_Meas_QMS101,,TA_Meas_QMH101,,GenWind,,GenWind,
date,time,status,PA,status,PR,status,RH,status,SR,status,TA,status,DirAvg,status,SpdAvg,
2010-09-15, 00:00:04,VALID,1000.57,VALID,0,VALID,92.8754,VALID,0,VALID,22.3941,VALID,83,VALID,0.0199219,
2010-09-15, 00:01:04,VALID,1000.57,VALID,0,VALID,92.8525,VALID,0,VALID,22.3958,VALID,83,VALID,0.00195313,
2010-09-15, 00:02:04,VALID,1000.59,VALID,0,VALID,92.8448,VALID,0,VALID,22.3941,VALID,83,VALID,0.255078,
2010-09-15, 00:03:04,VALID,1000.61,VALID,0,VALID,92.8754,VALID,0,VALID,22.4136,VALID,83,VALID,0.186328,
2010-09-15, 00:04:04,VALID,1000.59,VALID,0,VALID,92.883,VALID,0,VALID,22.4331,VALID,83,VALID,0,
2010-09-15, 00:05:04,VALID,1000.63,VALID,0,VALID,92.8754,VALID,0,VALID,22.4136,VALID,83,VALID,0.158594,
2010-09-15, 00:06:04,VALID,1000.62,VALID,0,VALID,92.8754,VALID,0,VALID,22.4136,VALID,83,VALID,0.152344,
2010-09-15, 00:07:04,VALID,1000.6,VALID,0,VALID,92.8983,VALID,0,VALID,22.4136,VALID,83,VALID,0.525,
2010-09-15, 00:08:04,VALID,1000.56,VALID,0,VALID,92.8601,VALID,0,VALID,22.4136,VALID,83,VALID,0.581641,
2010-09-15, 00:09:04,VALID,1000.57,VALID,0,VALID,92.8525,VALID,0,VALID,22.4331,VALID,80,VALID,0.521094,
2010-09-15, 00:10:04,VALID,1000.55,VALID,0,VALID,92.8372,VALID,0,VALID,22.4331,VALID,74,VALID,0.675781,
2010-09-15, 00:11:04,VALID,1000.59,VALID,0,VALID,92.8448,VALID,0,VALID,22.4331,VALID,72,VALID,0.433594,
2010-09-15, 00:12:04,VALID,1000.58,VALID,0,VALID,92.7991,VALID,0,VALID,22.4543,VALID,72,VALID,0.382422,
2010-09-15, 00:13:04,VALID,1000.53,VALID,0,VALID,92.738,VALID,0,VALID,22.4543,VALID,101,VALID,1.22969,
2010-09-15, 00:14:04,VALID,1000.56,VALID,0,VALID,92.7304,VALID,0,VALID,22.4526,VALID,108,VALID,0.881641,
2010-09-15, 00:15:04,VALID,1000.56,VALID,0,VALID,92.6617,VALID,0,VALID,22.4721,VALID,108,VALID,1.00547,
2010-09-15, 00:16:04,VALID,1000.55,VALID,0,VALID,92.6007,VALID,0,VALID,22.4721,VALID,109,VALID,1.01094,
2010-09-15, 00:17:04,VALID,1000.55,VALID,0,VALID,92.4481,VALID,0,VALID,22.5111,VALID,108,VALID,1.1875,
2010-09-15, 00:18:04,VALID,1000.55,VALID,0,VALID,92.2803,VALID,0,VALID,22.5111,VALID,105,VALID,1.09297,
2010-09-15, 00:19:04,VALID,1000.52,VALID,0,VALID,92.0056,VALID,0,VALID,22.5111,VALID,106,VALID,1.19766,
2010-09-15, 00:20:04,VALID,1000.52,VALID,0,VALID,91.7691,VALID,0,VALID,22.5306,VALID,105,VALID,1.5957,
2010-09-15, 00:21:04,VALID,1000.51,VALID,0,VALID,91.5707,VALID,0,VALID,22.5696,VALID,102,VALID,1.39531,
2010-09-15, 00:22:04,VALID,1000.48,VALID,0,VALID,91.2808,VALID,0,VALID,22.6087,VALID,80,VALID,0.683203,
2010-09-15, 00:23:04,VALID,1000.46,VALID,0,VALID,91.1129,VALID,0,VALID,22.6477,VALID,102,VALID,0.963281,
2010-09-15, 00:24:04,VALID,1000.43,VALID,0,VALID,91.1282,VALID,0,VALID,22.6672,VALID,103,VALID,0.808984,
2010-09-15, 00:25:04,VALID,1000.43,VALID,0,VALID,91.1434,VALID,0,VALID,22.6477,VALID,103,VALID,0.596484,
2010-09-15, 00:26:04,VALID,1000.42,VALID,0,VALID,91.2121,VALID,0,VALID,22.6477,VALID,103,VALID,0.479688,
2010-09-15, 00:27:04,VALID,1000.39,VALID,0,VALID,91.2274,VALID,0,VALID,22.6477,VALID,103,VALID,0.0289063,
2010-09-15, 00:28:04,VALID,1000.33,VALID,0,VALID,91.2808,VALID,0,VALID,22.6282,VALID,102,VALID,0,
2010-09-15, 00:29:04,VALID,1000.34,VALID,0,VALID,91.3723,VALID,0,VALID,22.6282,VALID,102,VALID,0,
2010-09-15, 00:30:04,VALID,1000.31,VALID,0,VALID,91.4257,VALID,0,VALID,22.6087,VALID,101,VALID,0,
2010-09-15, 00:31:04,VALID,1000.3,VALID,0,VALID,91.4181,VALID,0,VALID,22.6087,VALID,101,VALID,0,
2010-09-15, 00:32:04,VALID,1000.28,VALID,0,VALID,91.38,VALID,0,VALID,22.6087,VALID,101,VALID,0,
2010-09-15, 00:33:04,VALID,1000.29,VALID,0,VALID,91.4791,VALID,0,VALID,22.5892,VALID,101,VALID,0,
2010-09-15, 00:34:04,VALID,1000.3,VALID,0,VALID,91.5631,VALID,0,VALID,22.5892,VALID,101,VALID,0,
2010-09-15, 00:35:04,VALID,1000.29,VALID,0,VALID,91.5936,VALID,0,VALID,22.5696,VALID,101,VALID,0,
2010-09-15, 00:36:04,VALID,1000.3,VALID,0,VALID,91.5249,VALID,0,VALID,22.5909,VALID,101,VALID,0.802734,
2010-09-15, 00:37:04,VALID,1000.28,VALID,0,VALID,91.4868,VALID,0,VALID,22.5892,VALID,107,VALID,0.8,
2010-09-15, 00:38:04,VALID,1000.29,VALID,0,VALID,91.4257,VALID,0,VALID,22.5696,VALID,108,VALID,0.892187,
2010-09-15, 00:39:04,VALID,1000.28,VALID,0,VALID,91.3266,VALID,0,VALID,22.5696,VALID,101,VALID,1.08594,
2010-09-15, 00:40:04,VALID,1000.25,VALID,0,VALID,91.2274,VALID,0,VALID,22.5696,VALID,100,VALID,0.728906,
2010-09-15, 00:41:04,VALID,1000.25,VALID,0,VALID,91.1129,VALID,0,VALID,22.5696,VALID,100,VALID,0.855469,
2010-09-15, 00:42:04,VALID,1000.2,VALID,0,VALID,90.9832,VALID,0,VALID,22.5909,VALID,92,VALID,0.709375,
2010-09-15, 00:43:04,VALID,1000.17,VALID,0,VALID,90.9146,VALID,0,VALID,22.5501,VALID,87,VALID,0.7,
2010-09-15, 00:44:04,VALID,1000.18,VALID,0,VALID,90.8611,VALID,0,VALID,22.5696,VALID,81,VALID,0.814062,
2010-09-15, 00:45:04,VALID,1000.11,VALID,0,VALID,90.7849,VALID,0,VALID,22.5696,VALID,77,VALID,0.727344,
2010-09-15, 00:46:04,VALID,1000.12,VALID,0,VALID,90.7009,VALID,0,VALID,22.5892,VALID,74,VALID,0.756641,
2010-09-15, 00:47:04,VALID,1000.13,VALID,0,VALID,90.5941,VALID,0,VALID,22.6104,VALID,36,VALID,0.720703,
2010-09-15, 00:48:04,VALID,1000.07,VALID,0,VALID,90.4263,VALID,0,VALID,22.5892,VALID,27,VALID,0.586328,
2010-09-15, 00:49:04,VALID,1000.1,VALID,0,VALID,90.3042,VALID,0,VALID,22.6087,VALID,39,VALID,0.498437,
2010-09-15, 00:50:04,VALID,1000.09,VALID,0,VALID,90.205,VALID,0,VALID,22.5892,VALID,39,VALID,0.497266,
2010-09-15, 00:51:04,VALID,1000.11,VALID,0,VALID,90.1592,VALID,0,VALID,22.5892,VALID,39,VALID,0.544531,
2010-09-15, 00:52:04,VALID,1000.11,VALID,0,VALID,90.1211,VALID,0,VALID,22.5892,VALID,39,VALID,0.437891,
2010-09-15, 00:53:04,VALID,1000.1,VALID,0,VALID,90.0295,VALID,0,VALID,22.5892,VALID,39,VALID,0.597266,
2010-09-15, 00:54:04,VALID,1000.09,VALID,0,VALID,89.9532,VALID,0,VALID,22.5892,VALID,39,VALID,0.761328,
2010-09-15, 00:55:04,VALID,1000.08,VALID,0,VALID,89.9303,VALID,0,VALID,22.6087,VALID,47,VALID,1.04297,
2010-09-15, 00:56:04,VALID,1000.05,VALID,0,VALID,89.793,VALID,0,VALID,22.6069,VALID,55,VALID,1.03242,
2010-09-15, 00:57:04,VALID,1000.08,VALID,0,VALID,89.7701,VALID,0,VALID,22.6477,VALID,55,VALID,1.03555,
2010-09-15, 00:58:04,VALID,1000.06,VALID,0,VALID,89.9151,VALID,0,VALID,22.6477,VALID,55,VALID,0.926172,
2010-09-15, 00:59:04,VALID,1000.03,VALID,0,VALID,90.0829,VALID,0,VALID,22.6477,VALID,55,VALID,1.00273,
2010-09-15, 01:00:04,VALID,1000.02,VALID,0,VALID,90.2737,VALID,0,VALID,22.6087,VALID,55,VALID,0.791016,
2010-09-15, 01:01:04,VALID,1000.01,VALID,0,VALID,90.3881,VALID,0,VALID,22.6087,VALID,55,VALID,0.545313,
2010-09-15, 01:02:04,VALID,1000.03,VALID,0,VALID,90.472,VALID,0,VALID,22.5892,VALID,55,VALID,0.664063,
2010-09-15, 01:03:04,VALID,999.993,VALID,0,VALID,90.4491,VALID,0,VALID,22.5696,VALID,55,VALID,0.550391,
2010-09-15, 01:04:04,VALID,1000.02,VALID,0,VALID,90.2584,VALID,0,VALID,22.5501,VALID,54,VALID,0.446875,
2010-09-15, 01:05:04,VALID,999.985,VALID,0,VALID,90.2737,VALID,0,VALID,22.5111,VALID,54,VALID,0.400781,
2010-09-15, 01:06:04,VALID,1000.01,VALID,0,VALID,90.3423,VALID,0,VALID,22.4899,VALID,54,VALID,0.233203,
2010-09-15, 01:07:04,VALID,999.974,VALID,0,VALID,90.3957,VALID,0,VALID,22.5111,VALID,54,VALID,0,
2010-09-15, 01:08:04,VALID,999.955,VALID,0,VALID,90.4034,VALID,0,VALID,22.4721,VALID,54,VALID,0,
2010-09-15, 01:09:04,VALID,999.902,VALID,0,VALID,90.4263,VALID,0,VALID,22.4526,VALID,54,VALID,0.284766,
2010-09-15, 01:10:04,VALID,999.88,VALID,0,VALID,90.4568,VALID,0,VALID,22.4331,VALID,54,VALID,0.423828,
2010-09-15, 01:11:04,VALID,999.888,VALID,0,VALID,90.5712,VALID,0,VALID,22.4331,VALID,54,VALID,0.508984,
2010-09-15, 01:12:04,VALID,999.856,VALID,0,VALID,90.5941,VALID,0,VALID,22.4136,VALID,53,VALID,0.635547,
2010-09-15, 01:13:04,VALID,999.833,VALID,0,VALID,90.5407,VALID,0,VALID,22.4136,VALID,53,VALID,0.345313,
2010-09-15, 01:14:04,VALID,999.793,VALID,0,VALID,90.5865,VALID,0,VALID,22.3924,VALID,55,VALID,0.366797,
2010-09-15, 01:15:04,VALID,999.77,VALID,0,VALID,90.556,VALID,0,VALID,22.4136,VALID,55,VALID,0.413281,
2010-09-15, 01:16:04,VALID,999.741,VALID,0,VALID,90.4568,VALID,0,VALID,22.4136,VALID,55,VALID,0.353516,
2010-09-15, 01:17:04,VALID,999.751,VALID,0,VALID,90.5636,VALID,0,VALID,22.4331,VALID,55,VALID,0.33125,
2010-09-15, 01:18:04,VALID,999.708,VALID,0,VALID,90.5026,VALID,0,VALID,22.4331,VALID,55,VALID,0.358984,
2010-09-15, 01:19:04,VALID,999.714,VALID,0,VALID,90.4568,VALID,0,VALID,22.4526,VALID,55,VALID,0,
2010-09-15, 01:20:04,VALID,999.717,VALID,0,VALID,90.4034,VALID,0,VALID,22.4526,VALID,55,VALID,0,
2010-09-15, 01:21:04,VALID,999.71,VALID,0,VALID,90.411,VALID,0,VALID,22.4721,VALID,67,VALID,0,
2010-09-15, 01:22:04,VALID,999.742,VALID,0,VALID,90.2431,VALID,0,VALID,22.4721,VALID,67,VALID,0,
2010-09-15, 01:23:04,VALID,999.706,VALID,0,VALID,90.0677,VALID,0,VALID,22.4916,VALID,67,VALID,0,
2010-09-15, 01:24:04,VALID,999.724,VALID,0,VALID,89.9303,VALID,0,VALID,22.5306,VALID,67,VALID,0,
2010-09-15, 01:25:04,VALID,999.729,VALID,0,VALID,89.854,VALID,0,VALID,22.5306,VALID,67,VALID,0,
2010-09-15, 01:26:04,VALID,999.686,VALID,0,VALID,89.7243,VALID,0,VALID,22.5484,VALID,67,VALID,0,
2010-09-15, 01:27:04,VALID,999.706,VALID,0,VALID,89.6938,VALID,0,VALID,22.5696,VALID,67,VALID,0,
2010-09-15, 01:28:04,VALID,999.683,VALID,0,VALID,89.7625,VALID,0,VALID,22.5892,VALID,67,VALID,0,
2010-09-15, 01:29:04,VALID,999.685,VALID,0,VALID,89.8464,VALID,0,VALID,22.5892,VALID,67,VALID,0,
2010-09-15, 01:30:04,VALID,999.677,VALID,0,VALID,89.8769,VALID,0,VALID,22.5892,VALID,67,VALID,0,
2010-09-15, 01:31:04,VALID,999.672,VALID,0,VALID,89.9837,VALID,0,VALID,22.5892,VALID,67,VALID,0,
2010-09-15, 01:32:04,VALID,999.669,VALID,0,VALID,90.0143,VALID,0,VALID,22.5696,VALID,67,VALID,0,
2010-09-15, 01:33:04,VALID,999.658,VALID,0,VALID,90.1287,VALID,0,VALID,22.5501,VALID,67,VALID,0,
2010-09-15, 01:34:04,VALID,999.64,VALID,0,VALID,90.0219,VALID,0,VALID,22.5501,VALID,67,VALID,0,
2010-09-15, 01:35:04,VALID,999.645,VALID,0,VALID,90.0143,VALID,0,VALID,22.5501,VALID,67,VALID,0,
2010-09-15, 01:36:04,VALID,999.627,VALID,0,VALID,89.9685,VALID,0,VALID,22.5501,VALID,67,VALID,0,
2010-09-15, 01:37:04,VALID,999.625,VALID,0,VALID,89.8617,VALID,0,VALID,22.5501,VALID,67,VALID,0,
2010-09-15, 01:38:04,VALID,999.593,VALID,0,VALID,89.8083,VALID,0,VALID,22.5501,VALID,126,VALID,0,
2010-09-15, 01:39:04,VALID,999.552,VALID,0,VALID,89.5641,VALID,0,VALID,22.5696,VALID,130,VALID,0.951172,
2010-09-15, 01:40:04,VALID,999.522,VALID,0,VALID,89.3047,VALID,0,VALID,22.6087,VALID,129,VALID,1.01367,
2010-09-15, 01:41:04,VALID,999.543,VALID,0,VALID,89.1903,VALID,0,VALID,22.6282,VALID,121,VALID,0.716016,
2010-09-15, 01:42:04,VALID,999.532,VALID,0,VALID,88.9995,VALID,0,VALID,22.6672,VALID,88,VALID,0.710156,
2010-09-15, 01:43:04,VALID,999.55,VALID,0,VALID,88.8622,VALID,0,VALID,22.6867,VALID,85,VALID,0.658203,
2010-09-15, 01:44:04,VALID,999.531,VALID,0,VALID,88.763,VALID,0,VALID,22.6867,VALID,46,VALID,0.739453,
2010-09-15, 01:45:04,VALID,999.521,VALID,0,VALID,88.618,VALID,0,VALID,22.7079,VALID,40,VALID,0.594141,
2010-09-15, 01:46:04,VALID,999.51,VALID,0,VALID,89.0224,VALID,0,VALID,22.6867,VALID,13,VALID,0.749609,
2010-09-15, 01:47:04,VALID,999.536,VALID,0,VALID,89.3581,VALID,0,VALID,22.6282,VALID,13,VALID,0.665625,
2010-09-15, 01:48:04,VALID,999.527,VALID,0,VALID,89.7396,VALID,0,VALID,22.5892,VALID,13,VALID,0.575,
2010-09-15, 01:49:04,VALID,999.518,VALID,0,VALID,90.1363,VALID,0,VALID,22.5696,VALID,13,VALID,0.478906,
2010-09-15, 01:50:04,VALID,999.521,VALID,0,VALID,90.472,VALID,0,VALID,22.5306,VALID,13,VALID,0.239453,
2010-09-15, 01:51:04,VALID,999.506,VALID,0,VALID,90.6628,VALID,0,VALID,22.5111,VALID,13,VALID,0.123438,
2010-09-15, 01:52:04,VALID,999.549,VALID,0,VALID,90.8077,VALID,0,VALID,22.5323,VALID,13,VALID,0,
2010-09-15, 01:53:04,VALID,999.553,VALID,0,VALID,90.8688,VALID,0,VALID,22.4916,VALID,13,VALID,0,
2010-09-15, 01:54:04,VALID,999.528,VALID,0,VALID,90.884,VALID,0,VALID,22.4916,VALID,13,VALID,0,
2010-09-15, 01:55:04,VALID,999.576,VALID,0,VALID,90.9527,VALID,0,VALID,22.4721,VALID,13,VALID,0,
2010-09-15, 01:56:04,VALID,999.554,VALID,0,VALID,91.1206,VALID,0,VALID,22.4526,VALID,13,VALID,0,
2010-09-15, 01:57:04,VALID,999.559,VALID,0,VALID,91.2426,VALID,0,VALID,22.4543,VALID,13,VALID,0,
2010-09-15, 01:58:04,VALID,999.571,VALID,0,VALID,91.3113,VALID,0,VALID,22.4136,VALID,13,VALID,0,
2010-09-15, 01:59:04,VALID,999.587,VALID,0,VALID,91.4105,VALID,0,VALID,22.4331,VALID,13,VALID,0,
2010-09-15, 02:00:04,VALID,999.587,VALID,0,VALID,91.5173,VALID,0,VALID,22.4136,VALID,13,VALID,0.194922,
2010-09-15, 02:01:04,VALID,999.595,VALID,0,VALID,91.5936,VALID,0,VALID,22.3941,VALID,13,VALID,0.219922,
2010-09-15, 02:02:04,VALID,999.608,VALID,0,VALID,91.6928,VALID,0,VALID,22.3941,VALID,13,VALID,0.255078,
2010-09-15, 02:03:04,VALID,999.627,VALID,0,VALID,91.8377,VALID,0,VALID,22.3941,VALID,13,VALID,0.167187,
2010-09-15, 02:04:04,VALID,999.617,VALID,0,VALID,91.8911,VALID,0,VALID,22.3746,VALID,13,VALID,0,
2010-09-15, 02:05:04,VALID,999.659,VALID,0,VALID,91.9674,VALID,0,VALID,22.3746,VALID,13,VALID,0,
2010-09-15, 02:06:04,VALID,999.633,VALID,0,VALID,91.9903,VALID,0,VALID,22.3551,VALID,13,VALID,0,
2010-09-15, 02:07:04,VALID,999.63,VALID,0,VALID,91.998,VALID,0,VALID,22.3551,VALID,13,VALID,0.105469,
2010-09-15, 02:08:04,VALID,999.662,VALID,0,VALID,91.9674,VALID,0,VALID,22.3746,VALID,13,VALID,0.461328,
2010-09-15, 02:09:04,VALID,999.671,VALID,0,VALID,91.853,VALID,0,VALID,22.3941,VALID,13,VALID,0.467187,
2010-09-15, 02:10:04,VALID,999.69,VALID,0,VALID,91.7538,VALID,0,VALID,22.4331,VALID,13,VALID,0.523438,
2010-09-15, 02:11:04,VALID,999.682,VALID,0,VALID,91.4486,VALID,0,VALID,22.4526,VALID,13,VALID,0.505078,
2010-09-15, 02:12:04,VALID,999.707,VALID,0,VALID,91.174,VALID,0,VALID,22.5111,VALID,13,VALID,0.33125,
2010-09-15, 02:13:04,VALID,999.698,VALID,0,VALID,90.7543,VALID,0,VALID,22.5128,VALID,13,VALID,0.410156,
2010-09-15, 02:14:04,VALID,999.712,VALID,0,VALID,90.3423,VALID,0,VALID,22.5306,VALID,13,VALID,0.206641,
2010-09-15, 02:15:04,VALID,999.746,VALID,0,VALID,90.0906,VALID,0,VALID,22.5306,VALID,13,VALID,0,
2010-09-15, 02:16:04,VALID,999.745,VALID,0,VALID,89.9227,VALID,0,VALID,22.5501,VALID,13,VALID,0.00078125,
2010-09-15, 02:17:04,VALID,999.752,VALID,0,VALID,89.8846,VALID,0,VALID,22.5306,VALID,13,VALID,0,
2010-09-15, 02:18:04,VALID,999.79,VALID,0,VALID,89.8617,VALID,0,VALID,22.5306,VALID,13,VALID,0,
2010-09-15, 02:19:04,VALID,999.781,VALID,0,VALID,89.8464,VALID,0,VALID,22.5306,VALID,13,VALID,0,
2010-09-15, 02:20:04,VALID,999.789,VALID,0,VALID,89.793,VALID,0,VALID,22.5111,VALID,13,VALID,0,
2010-09-15, 02:21:04,VALID,999.796,VALID,0,VALID,89.7854,VALID,0,VALID,22.5111,VALID,13,VALID,0,
2010-09-15, 02:22:04,VALID,999.764,VALID,0,VALID,89.854,VALID,0,VALID,22.4916,VALID,13,VALID,0.0558594,
2010-09-15, 02:23:04,VALID,999.798,VALID,0,VALID,89.7472,VALID,0,VALID,22.5111,VALID,13,VALID,0,
2010-09-15, 02:24:04,VALID,999.83,VALID,0,VALID,89.6938,VALID,0,VALID,22.4916,VALID,13,VALID,0,
2010-09-15, 02:25:04,VALID,999.787,VALID,0,VALID,89.7243,VALID,0,VALID,22.4721,VALID,13,VALID,0,
2010-09-15, 02:26:04,VALID,999.805,VALID,0,VALID,89.5946,VALID,0,VALID,22.4721,VALID,13,VALID,0.44375,
2010-09-15, 02:27:04,VALID,999.832,VALID,0,VALID,89.6633,VALID,0,VALID,22.4721,VALID,13,VALID,0.126172,
2010-09-15, 02:28:04,VALID,999.816,VALID,0,VALID,89.3352,VALID,0,VALID,22.4916,VALID,13,VALID,0.596875,
2010-09-15, 02:29:04,VALID,999.828,VALID,0,VALID,89.0682,VALID,0,VALID,22.4916,VALID,13,VALID,0.538281,
2010-09-15, 02:30:04,VALID,999.828,VALID,0,VALID,88.8317,VALID,0,VALID,22.5111,VALID,99,VALID,0.523047,
2010-09-15, 02:31:04,VALID,999.839,VALID,0,VALID,88.5875,VALID,0,VALID,22.5306,VALID,105,VALID,0.948828,
2010-09-15, 02:32:04,VALID,999.819,VALID,0,VALID,88.3205,VALID,0,VALID,22.5714,VALID,106,VALID,0.705078,
2010-09-15, 02:33:04,VALID,999.848,VALID,0,VALID,88.1984,VALID,0,VALID,22.6104,VALID,106,VALID,0.614453,
2010-09-15, 02:34:04,VALID,999.817,VALID,0,VALID,88.2137,VALID,0,VALID,22.6087,VALID,106,VALID,0.719141,
2010-09-15, 02:35:04,VALID,999.846,VALID,0,VALID,88.2671,VALID,0,VALID,22.5892,VALID,106,VALID,0.674219,
2010-09-15, 02:36:04,VALID,999.811,VALID,0,VALID,88.2213,VALID,0,VALID,22.6087,VALID,106,VALID,0.778516,
2010-09-15, 02:37:04,VALID,999.825,VALID,0,VALID,88.1221,VALID,0,VALID,22.6282,VALID,106,VALID,0.858594,
2010-09-15, 02:38:04,VALID,999.827,VALID,0,VALID,87.939,VALID,0,VALID,22.6087,VALID,106,VALID,0.890234,
2010-09-15, 02:39:04,VALID,999.855,VALID,0,VALID,87.9085,VALID,0,VALID,22.6282,VALID,106,VALID,0.850391,
2010-09-15, 02:40:04,VALID,999.846,VALID,0,VALID,87.8474,VALID,0,VALID,22.6282,VALID,114,VALID,0.769531,
2010-09-15, 02:41:04,VALID,999.837,VALID,0,VALID,87.8856,VALID,0,VALID,22.6282,VALID,114,VALID,0.837891,
2010-09-15, 02:42:04,VALID,999.837,VALID,0,VALID,87.9619,VALID,0,VALID,22.6087,VALID,114,VALID,0.869141,
2010-09-15, 02:43:04,VALID,999.851,VALID,0,VALID,88.0153,VALID,0,VALID,22.6087,VALID,114,VALID,0.635547,
2010-09-15, 02:44:04,VALID,999.816,VALID,0,VALID,88.1526,VALID,0,VALID,22.5892,VALID,114,VALID,0.454688,
2010-09-15, 02:45:04,VALID,999.814,VALID,0,VALID,88.2823,VALID,0,VALID,22.5696,VALID,114,VALID,0.409766,
2010-09-15, 02:46:04,VALID,999.797,VALID,0,VALID,88.412,VALID,0,VALID,22.5519,VALID,114,VALID,0.230078,
2010-09-15, 02:47:04,VALID,999.804,VALID,0,VALID,88.4883,VALID,0,VALID,22.5306,VALID,114,VALID,0.330078,
2010-09-15, 02:48:04,VALID,999.777,VALID,0,VALID,88.5799,VALID,0,VALID,22.5111,VALID,114,VALID,0.149609,
2010-09-15, 02:49:04,VALID,999.774,VALID,0,VALID,88.5723,VALID,0,VALID,22.4721,VALID,114,VALID,0.187109,
2010-09-15, 02:50:04,VALID,999.75,VALID,0,VALID,88.6638,VALID,0,VALID,22.4526,VALID,114,VALID,0.427734,
2010-09-15, 02:51:04,VALID,999.735,VALID,0,VALID,88.4654,VALID,0,VALID,22.4526,VALID,114,VALID,0.544922,
2010-09-15, 02:52:04,VALID,999.732,VALID,0,VALID,88.3357,VALID,0,VALID,22.4526,VALID,120,VALID,0.608594,
2010-09-15, 02:53:04,VALID,999.756,VALID,0,VALID,88.2137,VALID,0,VALID,22.4526,VALID,135,VALID,0.683984,
2010-09-15, 02:54:04,VALID,999.764,VALID,0,VALID,88.1679,VALID,0,VALID,22.4721,VALID,141,VALID,0.474609,
2010-09-15, 02:55:04,VALID,999.757,VALID,0,VALID,88.0306,VALID,0,VALID,22.4916,VALID,141,VALID,0.30625,
2010-09-15, 02:56:04,VALID,999.756,VALID,0,VALID,87.8551,VALID,0,VALID,22.5306,VALID,169,VALID,1.0043,
2010-09-15, 02:57:04,VALID,999.791,VALID,0,VALID,87.3363,VALID,0,VALID,22.5501,VALID,158,VALID,1.25469,
2010-09-15, 02:58:04,VALID,999.754,VALID,0,VALID,87.0692,VALID,0,VALID,22.5696,VALID,154,VALID,1.15313,
2010-09-15, 02:59:04,VALID,999.783,VALID,0,VALID,86.7793,VALID,0,VALID,22.6494,VALID,143,VALID,1.19141,
2010-09-15, 03:00:04,VALID,999.77,VALID,0,VALID,86.7259,VALID,0,VALID,22.6867,VALID,153,VALID,0.98125,
2010-09-15, 03:01:04,VALID,999.76,VALID,0,VALID,86.6343,VALID,0,VALID,22.7062,VALID,150,VALID,0.608203,
2010-09-15, 03:02:04,VALID,999.757,VALID,0,VALID,86.7183,VALID,0,VALID,22.7257,VALID,150,VALID,0.576953,
2010-09-15, 03:03:04,VALID,999.736,VALID,0,VALID,86.6496,VALID,0,VALID,22.7257,VALID,150,VALID,0.510938,
2010-09-15, 03:04:04,VALID,999.744,VALID,0,VALID,86.7793,VALID,0,VALID,22.7257,VALID,129,VALID,0.289453,
2010-09-15, 03:05:04,VALID,999.726,VALID,0,VALID,86.7259,VALID,0,VALID,22.7257,VALID,163,VALID,0.425781,
2010-09-15, 03:06:04,VALID,999.742,VALID,0,VALID,86.6572,VALID,0,VALID,22.7257,VALID,154,VALID,0.516797,
2010-09-15, 03:07:04,VALID,999.763,VALID,0,VALID,86.5809,VALID,0,VALID,22.7469,VALID,138,VALID,0.519922,
2010-09-15, 03:08:04,VALID,999.759,VALID,0,VALID,86.6954,VALID,0,VALID,22.7257,VALID,138,VALID,0.273828,
2010-09-15, 03:09:04,VALID,999.742,VALID,0,VALID,86.7335,VALID,0,VALID,22.7062,VALID,138,VALID,0.35625,
2010-09-15, 03:10:04,VALID,999.729,VALID,0,VALID,86.7869,VALID,0,VALID,22.6867,VALID,138,VALID,0.252734,
2010-09-15, 03:11:04,VALID,999.726,VALID,0,VALID,86.8327,VALID,0,VALID,22.6867,VALID,135,VALID,0.144531,
2010-09-15, 03:12:04,VALID,999.725,VALID,0,VALID,87.0463,VALID,0,VALID,22.6672,VALID,133,VALID,0,
2010-09-15, 03:13:04,VALID,999.724,VALID,0,VALID,87.2066,VALID,0,VALID,22.6477,VALID,133,VALID,0,
2010-09-15, 03:14:04,VALID,999.701,VALID,0,VALID,87.4736,VALID,0,VALID,22.6282,VALID,133,VALID,0.330859,
2010-09-15, 03:15:04,VALID,999.684,VALID,0,VALID,87.8093,VALID,0,VALID,22.6087,VALID,109,VALID,0.740234,
2010-09-15, 03:16:04,VALID,999.692,VALID,0,VALID,88.0687,VALID,0,VALID,22.5696,VALID,109,VALID,0.698047,
2010-09-15, 03:17:04,VALID,999.69,VALID,0,VALID,88.2747,VALID,0,VALID,22.5501,VALID,92,VALID,1.15547,
2010-09-15, 03:18:04,VALID,999.694,VALID,0,VALID,88.4426,VALID,0,VALID,22.5306,VALID,86,VALID,0.999609,
2010-09-15, 03:19:04,VALID,999.692,VALID,0,VALID,88.5723,VALID,0,VALID,22.5306,VALID,86,VALID,1.0668,
2010-09-15, 03:20:04,VALID,999.705,VALID,0,VALID,88.5112,VALID,0,VALID,22.5111,VALID,89,VALID,1.16992,
2010-09-15, 03:21:04,VALID,999.717,VALID,0,VALID,88.557,VALID,0,VALID,22.5111,VALID,88,VALID,1.02227,
2010-09-15, 03:22:04,VALID,999.703,VALID,0,VALID,88.5875,VALID,0,VALID,22.5306,VALID,86,VALID,0.686719,
2010-09-15, 03:23:04,VALID,999.718,VALID,0,VALID,88.496,VALID,0,VALID,22.5306,VALID,90,VALID,0.997266,
2010-09-15, 03:24:04,VALID,999.719,VALID,0,VALID,88.4578,VALID,0,VALID,22.4899,VALID,90,VALID,0.957812,
2010-09-15, 03:25:04,VALID,999.739,VALID,0,VALID,88.3129,VALID,0,VALID,22.5501,VALID,81,VALID,1.13828,
2010-09-15, 03:26:04,VALID,999.76,VALID,0,VALID,88.2594,VALID,0,VALID,22.5501,VALID,101,VALID,0.690625,
2010-09-15, 03:27:04,VALID,999.751,VALID,0,VALID,88.2213,VALID,0,VALID,22.5696,VALID,96,VALID,0.789063,
2010-09-15, 03:28:04,VALID,999.754,VALID,0,VALID,88.3205,VALID,0,VALID,22.5696,VALID,109,VALID,0.319531,
2010-09-15, 03:29:04,VALID,999.725,VALID,0,VALID,88.2366,VALID,0,VALID,22.5696,VALID,20,VALID,0.765625,
2010-09-15, 03:30:04,VALID,999.77,VALID,0,VALID,88.1984,VALID,0,VALID,22.5892,VALID,357,VALID,0.391406,
2010-09-15, 03:31:04,VALID,999.743,VALID,0,VALID,88.2366,VALID,0,VALID,22.5892,VALID,356,VALID,0.688281,
2010-09-15, 03:32:04,VALID,999.706,VALID,0,VALID,88.3815,VALID,0,VALID,22.5696,VALID,355,VALID,0.803125,
2010-09-15, 03:33:04,VALID,999.739,VALID,0,VALID,88.4883,VALID,0,VALID,22.5892,VALID,353,VALID,0.607813,
2010-09-15, 03:34:04,VALID,999.742,VALID,0,VALID,88.5723,VALID,0,VALID,22.5892,VALID,308,VALID,0.639063,
2010-09-15, 03:35:04,VALID,999.725,VALID,0,VALID,88.6638,VALID,0,VALID,22.6087,VALID,304,VALID,0.630859,
2010-09-15, 03:36:04,VALID,999.707,VALID,0,VALID,88.5875,VALID,0,VALID,22.6087,VALID,304,VALID,0.528125,
2010-09-15, 03:37:04,VALID,999.707,VALID,0,VALID,88.5265,VALID,0,VALID,22.6104,VALID,304,VALID,0.0191406,
2010-09-15, 03:38:04,VALID,999.712,VALID,0,VALID,88.5189,VALID,0,VALID,22.6087,VALID,312,VALID,0.389062,
2010-09-15, 03:39:04,VALID,999.682,VALID,0,VALID,88.6714,VALID,0,VALID,22.6477,VALID,118,VALID,0.601953,
2010-09-15, 03:40:04,VALID,999.697,VALID,0,VALID,88.3434,VALID,0,VALID,22.6867,VALID,103,VALID,0.882422,
2010-09-15, 03:41:04,VALID,999.657,VALID,0,VALID,88,VALID,0,VALID,22.7452,VALID,116,VALID,1.43633,
2010-09-15, 03:42:04,VALID,999.677,VALID,0,VALID,87.8093,VALID,0,VALID,22.763,VALID,114,VALID,1.32227,
2010-09-15, 03:43:04,VALID,999.664,VALID,0,VALID,87.6567,VALID,0,VALID,22.8232,VALID,115,VALID,1.23125,
2010-09-15, 03:44:04,VALID,999.69,VALID,0,VALID,87.6491,VALID,0,VALID,22.8623,VALID,132,VALID,0.819531,
2010-09-15, 03:45:04,VALID,999.675,VALID,0,VALID,87.6872,VALID,0,VALID,22.8232,VALID,134,VALID,0.813672,
2010-09-15, 03:46:04,VALID,999.684,VALID,0,VALID,87.733,VALID,0,VALID,22.8037,VALID,134,VALID,0.697266,
2010-09-15, 03:47:04,VALID,999.686,VALID,0,VALID,87.8398,VALID,0,VALID,22.8232,VALID,134,VALID,0.714063,
2010-09-15, 03:48:04,VALID,999.684,VALID,0,VALID,87.9009,VALID,0,VALID,22.8037,VALID,134,VALID,0.583984,
2010-09-15, 03:49:04,VALID,999.71,VALID,0,VALID,87.9619,VALID,0,VALID,22.7842,VALID,134,VALID,0.370703,